Weather History for Mammoth, CA

Change the Weather History Date:

Friday, October 4, 2013

  Actual Average Record
Temperature  
Mean Temperature 42 °F -  
Max Temperature 59 °F 62 °F 105 °F (1998)
Min Temperature 26 °F 44 °F 26 °F (2013)
Degree Days  
Heating Degree Days 22    
Moisture  
Dew Point 5 °F    
Average Humidity 28    
Maximum Humidity 51    
Minimum Humidity 8    
Precipitation  
Precipitation 0.00 in - - ()
Sea Level Pressure  
Sea Level Pressure 30.34 in    
Wind  
Wind Speed 10 mph (NW)    
Max Wind Speed 16 mph    
Max Gust Speed 16 mph    
Visibility 10 miles    
Events      
Averages and records for this station are not official NWS values.
T = Trace of Precipitation, MM = Missing Value Source: NWS Daily Summary

Daily Weather History Graph

Daily Weather History Graph

Search for Another Location

Airport:

Trip Planner

Search our weather history database for the weather conditions in past years. The results will help you decide how hot, cold, wet, or windy it might be!

Date:

Astronomy

Oct. 04, 2013 Rise Set
Actual Time 6:53 AM PDT 6:33 PM PDT
Civil Twilight 6:27 AM PDT 6:59 PM PDT
Nautical Twilight 5:57 AM PDT 7:29 PM PDT
Astronomical Twilight 5:26 AM PDT 8:00 PM PDT
Moon 6:34 AM PDT (10/4) 6:19 PM PDT (10/4)
Length of Visible Light 12h 31m
Length of Day
11h 39m
Waning Crescent, 0% of the Moon is Illuminated
Oct 4
Waning Crescent
Oct 4
New
Oct 11
First Quarter
Oct 18
Full
Oct 26
Last Quarter

Hourly Weather History & Observations

Time (PDT) Temp. Windchill Dew Point Humidity Pressure Visibility Wind Dir Wind Speed Gust Speed Precip Events Conditions
12:15 AM 32.0 °F 22.1 °F 8.6 °F 38% 30.25 in 10.0 mi West 13.8 mph - N/A   Clear
12:35 AM 32.0 °F 21.6 °F 8.6 °F 38% 30.25 in 10.0 mi West 15.0 mph - N/A   Clear
12:55 AM 32.0 °F 21.2 °F 8.6 °F 38% 30.25 in 10.0 mi WNW 16.1 mph - N/A   Clear
1:15 AM 30.2 °F 19.3 °F 8.6 °F 40% 30.26 in 10.0 mi WNW 15.0 mph - N/A   Clear
1:35 AM 30.2 °F 20.8 °F 10.4 °F 44% 30.27 in 10.0 mi West 11.5 mph - N/A   Clear
1:55 AM 30.2 °F 18.9 °F 10.4 °F 44% 30.27 in 10.0 mi WNW 16.1 mph - N/A   Clear
2:15 AM 30.2 °F 19.3 °F 10.4 °F 44% 30.27 in 10.0 mi West 15.0 mph - N/A   Clear
2:35 AM 30.2 °F 19.8 °F 10.4 °F 44% 30.27 in 10.0 mi West 13.8 mph - N/A   Clear
2:55 AM 30.2 °F 21.3 °F 12.2 °F 47% 30.26 in 10.0 mi West 10.4 mph - N/A   Clear
3:15 AM 28.4 °F 18.5 °F 10.4 °F 47% 30.26 in 10.0 mi West 11.5 mph - N/A   Clear
3:35 AM 26.6 °F 15.7 °F 10.4 °F 51% 30.27 in 10.0 mi West 12.7 mph - N/A   Clear
3:55 AM 26.6 °F 16.2 °F 10.4 °F 51% 30.27 in 10.0 mi West 11.5 mph - N/A   Clear
4:15 AM 30.2 °F 20.8 °F 12.2 °F 47% 30.27 in 10.0 mi NW 11.5 mph - N/A   Clear
4:35 AM 30.2 °F 20.8 °F 12.2 °F 47% 30.27 in 10.0 mi NW 11.5 mph - N/A   Clear
4:55 AM 28.4 °F 18.5 °F 12.2 °F 51% 30.28 in 10.0 mi WNW 11.5 mph - N/A   Clear
5:15 AM 28.4 °F 18.5 °F 12.2 °F 51% 30.29 in 10.0 mi West 11.5 mph - N/A   Clear
5:35 AM 28.4 °F 19.1 °F 12.2 °F 51% 30.29 in 10.0 mi West 10.4 mph - N/A   Clear
5:55 AM 32.0 °F 23.6 °F 14.0 °F 48% 30.31 in 10.0 mi WNW 10.4 mph - N/A   Clear
6:15 AM 30.2 °F 21.3 °F 14.0 °F 51% 30.31 in 10.0 mi WNW 10.4 mph 16.1 mph N/A   Clear
6:35 AM 30.2 °F 21.3 °F 14.0 °F 51% 30.31 in 10.0 mi WNW 10.4 mph - N/A   Clear
6:55 AM 28.4 °F 19.7 °F 12.2 °F 51% 30.32 in 10.0 mi West 9.2 mph - N/A   Clear
7:15 AM 28.4 °F 20.4 °F 12.2 °F 51% 30.33 in 10.0 mi WNW 8.1 mph - N/A   Clear
7:35 AM 30.2 °F 21.9 °F 14.0 °F 51% 30.34 in 10.0 mi WNW 9.2 mph - N/A   Clear
7:55 AM 32.0 °F 23.6 °F 14.0 °F 48% 30.35 in 10.0 mi WNW 10.4 mph - N/A   Clear
8:15 AM 35.6 °F 28.0 °F 14.0 °F 41% 30.35 in 10.0 mi West 10.4 mph - N/A   Clear
8:35 AM 35.6 °F 28.0 °F 14.0 °F 41% 30.36 in 10.0 mi WNW 10.4 mph - N/A   Clear
9:15 AM 39.2 °F 33.0 °F 12.2 °F 33% 30.37 in 10.0 mi West 9.2 mph - N/A   Clear
9:35 AM 41.0 °F 37.1 °F 10.4 °F 29% 30.37 in 10.0 mi WNW 5.8 mph - N/A   Clear
9:55 AM 42.8 °F 37.0 °F 8.6 °F 25% 30.38 in 10.0 mi WNW 10.4 mph 16.1 mph N/A   Clear
10:15 AM 44.6 °F 40.2 °F 6.8 °F 21% 30.38 in 10.0 mi NW 8.1 mph - N/A   Clear
10:35 AM 46.4 °F 42.4 °F 6.8 °F 20% 30.38 in 10.0 mi NW 8.1 mph - N/A   Clear
10:55 AM 46.4 °F 42.9 °F 5.0 °F 18% 30.38 in 10.0 mi NW 6.9 mph - N/A   Clear
11:15 AM 48.2 °F - 5.0 °F 17% 30.38 in 10.0 mi NNW 4.6 mph - N/A   Clear
11:35 AM 50.0 °F - 5.0 °F 16% 30.38 in 10.0 mi NNW 6.9 mph - N/A   Clear
11:55 AM 50.0 °F - 5.0 °F 16% 30.37 in 10.0 mi Calm Calm - N/A   Clear
12:15 PM 51.8 °F - 3.2 °F 14% 30.37 in 10.0 mi West 5.8 mph - N/A   Clear
12:35 PM 51.8 °F - 5.0 °F 15% 30.36 in 10.0 mi WSW 5.8 mph - N/A   Clear
12:55 PM 51.8 °F - 3.2 °F 14% 30.35 in 10.0 mi West 3.5 mph - N/A   Clear
1:15 PM 55.4 °F - 1.4 °F 11% 30.34 in 10.0 mi East 4.6 mph - N/A   Clear
1:35 PM 55.4 °F - 1.4 °F 11% 30.33 in 10.0 mi NW 5.8 mph - N/A   Clear
1:55 PM 57.2 °F - -0.4 °F 10% 30.33 in 10.0 mi NW 6.9 mph - N/A   Clear
2:15 PM 55.4 °F - -0.4 °F 10% 30.32 in 10.0 mi SSW 4.6 mph - N/A   Clear
2:35 PM 57.2 °F - -0.4 °F 10% 30.32 in 10.0 mi Calm Calm - N/A   Clear
2:55 PM 57.2 °F - -2.2 °F 9% 30.32 in 10.0 mi NNW 6.9 mph - N/A   Clear
3:15 PM 57.2 °F - -2.2 °F 9% 30.32 in 10.0 mi NNE 9.2 mph - N/A   Clear
3:35 PM 59.0 °F - -2.2 °F 8% 30.32 in 10.0 mi North 11.5 mph - N/A   Clear
3:55 PM 57.2 °F - -4.0 °F 8% 30.33 in 10.0 mi NNW 6.9 mph - N/A   Clear
4:15 PM 59.0 °F - -2.2 °F 8% 30.33 in 10.0 mi NNW 9.2 mph - N/A   Clear
4:35 PM 57.2 °F - -2.2 °F 9% 30.33 in 10.0 mi NNW 9.2 mph - N/A   Clear
4:55 PM 57.2 °F - -2.2 °F 9% 30.33 in 10.0 mi North 10.4 mph - N/A   Clear
5:15 PM 55.4 °F - -4.0 °F 9% 30.33 in 10.0 mi NW 5.8 mph - N/A   Clear
5:35 PM 55.4 °F - -4.0 °F 9% 30.33 in 10.0 mi NNW 9.2 mph - N/A   Clear
5:55 PM 53.6 °F - -2.2 °F 10% 30.34 in 10.0 mi NNW 12.7 mph - N/A   Clear
6:15 PM 50.0 °F - -0.4 °F 13% 30.34 in 10.0 mi NNW 9.2 mph - N/A   Clear
6:35 PM 46.4 °F - -0.4 °F 14% 30.35 in 10.0 mi Calm Calm - N/A   Clear
6:55 PM 44.6 °F 43.1 °F -0.4 °F 15% 30.36 in 10.0 mi North 3.5 mph - N/A   Clear
7:15 PM 42.8 °F 41.1 °F -0.4 °F 16% 30.37 in 10.0 mi NW 3.5 mph - N/A   Clear
7:35 PM 41.0 °F - -2.2 °F 16% 30.38 in 10.0 mi Calm Calm - N/A   Clear
7:55 PM 39.2 °F 37.0 °F 1.4 °F 21% 30.38 in 10.0 mi West 3.5 mph - N/A   Clear
8:15 PM 37.4 °F 34.9 °F -0.4 °F 20% 30.39 in 10.0 mi North 3.5 mph - N/A   Clear
8:35 PM 35.6 °F - 1.4 °F 24% 30.40 in 10.0 mi Calm Calm - N/A   Clear
8:55 PM 35.6 °F - 1.4 °F 24% 30.40 in 10.0 mi Calm Calm - N/A   Clear
9:15 PM 35.6 °F - 1.4 °F 24% 30.41 in 10.0 mi Calm Calm - N/A   Clear
9:35 PM 33.8 °F - 1.4 °F 25% 30.42 in 10.0 mi Calm Calm - N/A   Clear
9:55 PM 33.8 °F 29.6 °F 1.4 °F 25% 30.43 in 10.0 mi West 4.6 mph - N/A   Clear
10:15 PM 32.0 °F 27.5 °F 1.4 °F 27% 30.42 in 10.0 mi West 4.6 mph - N/A   Clear
10:35 PM 32.0 °F 28.7 °F 1.4 °F 27% 30.43 in 10.0 mi NW 3.5 mph - N/A   Clear
10:55 PM 32.0 °F - 1.4 °F 27% 30.43 in 10.0 mi Calm Calm - N/A   Clear
11:15 PM 30.2 °F 26.7 °F 1.4 °F 29% 30.43 in 10.0 mi North 3.5 mph - N/A   Clear
11:35 PM 30.2 °F 26.7 °F 1.4 °F 29% 30.43 in 10.0 mi NNW 3.5 mph - N/A   Clear
11:55 PM 28.4 °F 24.6 °F 1.4 °F 31% 30.43 in 10.0 mi NW 3.5 mph - N/A   Clear